This demonstration page uses our WeatherBlox Daily Observations layout. Learn more.

Left ArrowRight Arrow

38.20091, -84.87328

Hourly Observations for September 8, 2022

Temp ( °F °C ) Dew Point ( °F °C ) Humidity (%) Winds ( mph kmh ) Pressure ( in mb ) Visibility ( mi km ) Precip ( " mm )
12:53 am 00:53 Clear 62 16.7 60 15.6 93 93 Calm 29.99 1016 10 16 0.00 0.00
1:53 am 01:53 Clear 61 16.1 59 15 93 93 Calm 29.98 1015 10 16 0.00 0.00
2:53 am 02:53 Clear 60 15.6 58 14.4 93 93 Calm 29.98 1015 7 11 0.00 0.00
3:53 am 03:53 Clear 59 15 57 13.9 93 93 Calm 29.97 1015 10 16 0.00 0.00
4:11 am 04:11 Mostly Clear 58 14.4 56 13.3 93 93 NNW 5 7 29.99 1016 7 11 0.00 0.00
4:53 am 04:53 Clear 57 13.9 56 13.3 96 96 N 3 6 29.97 1015 10 16 0.00 0.00
5:53 am 05:53 Clear 57 13.9 55 12.8 93 93 Calm 29.97 1015 10 16 0.00 0.00
6:53 am 06:53 Clear 57 13.9 54 12.2 89 89 Calm 29.98 1015 10 16 0.00 0.00
7:53 am 07:53 Sunny 58 14.4 56 13.3 93 93 NW 3 6 29.99 1016 10 16 0.00 0.00
8:53 am 08:53 Sunny 63 17.2 58 14.4 84 84 N 5 7 30.00 1016 10 16 0.00 0.00
9:53 am 09:53 Sunny 68 20 59 15 73 73 N 5 7 29.99 1016 10 16 0.00 0.00
10:53 am 10:53 Sunny 72 22.2 60 15.6 66 66 NE 5 7 29.99 1016 10 16 0.00 0.00
11:53 am 11:53 Sunny 75 23.9 59 15 57 57 NNE 6 9 29.98 1015 10 16 0.00 0.00
12:53 pm 12:53 Mostly Sunny 78 25.6 60 15.6 54 54 undefined N/A 29.97 1015 10 16 0.00 0.00
1:53 pm 13:53 Partly Cloudy 77 25 59 15 54 54 N 6 9 29.96 1015 10 16 0.00 0.00
2:53 pm 14:53 Mostly Sunny 79 26.1 58 14.4 49 49 NE 5 7 29.93 1014 10 16 0.00 0.00
3:53 pm 15:53 Mostly Cloudy 79 26.1 57 13.9 47 47 NE 8 13 29.91 1013 10 16 0.00 0.00
4:53 pm 16:53 Mostly Sunny 80 26.7 58 14.4 47 47 ENE 5 7 29.89 1012 10 16 0.00 0.00
5:53 pm 17:53 Mostly Sunny 77 25 57 13.9 50 50 NNE 3 6 29.89 1012 10 16 0.00 0.00
6:53 pm 18:53 Mostly Sunny 78 25.6 59 15 52 52 VRB 5 7 29.87 1012 10 16 0.00 0.00
7:53 pm 19:53 Sunny 74 23.3 60 15.6 62 62 Calm 29.87 1012 10 16 0.00 0.00
8:53 pm 20:53 Clear 69 20.6 61 16.1 75 75 N 3 6 29.88 1012 7 11 0.00 0.00
9:53 pm 21:53 Clear 69 20.6 60 15.6 73 73 N 3 6 29.89 1012 10 16 0.00 0.00
10:53 pm 22:53 Clear 65 18.3 61 16.1 87 87 Calm 29.90 1013 10 16 0.00 0.00
11:53 pm 23:53 Clear 63 17.2 60 15.6 90 90 Calm 29.91 1013 10 16 0.00 0.00

Powered by AerisWeather